This demonstration page uses our WeatherBlox Daily Observations layout. Learn more.

Hourly Observations for April 28, 2019

Temp ( °F °C ) Dew Point ( °F °C ) Humidity (%) Winds ( mph kmh ) Pressure ( in mb ) Visibility ( mi km ) Precip ( " mm )
12:15 am 00:15 Cloudy 40 4.7 35 1.6 81 81 ESE 13 20 30.07 1018 10 16.0934 0 0
12:35 am 00:35 Cloudy 40 4.7 35 1.8 82 82 ESE 15 24 30.07 1018 10 16.0934 0 0
12:55 am 00:55 Cloudy 40 4.5 35 1.5 81 81 E 14 22 30.07 1018 10 16.0934 0 0
1:15 am 01:15 Cloudy 40 4.5 34 1.3 80 80 ESE 14 22 30.07 1018 10 16.0934 0 0
1:35 am 01:35 Cloudy 40 4.5 35 1.6 82 82 ESE 15 24 30.06 1018 10 16.0934 0 0
1:55 am 01:55 Cloudy 40 4.3 35 1.6 83 83 ESE 16 26 30.05 1018 10 16.0934 0 0
2:15 am 02:15 Cloudy 39 4.1 35 1.5 83 83 ESE 16 26 30.06 1018 10 16.0934 0 0
2:35 am 02:35 Cloudy 39 3.9 34 1.2 83 83 ESE 17 28 30.05 1018 10 16.0934 0 0
2:55 am 02:55 Cloudy 39 3.7 34 1.2 84 84 ESE 17 28 30.04 1017 10 16.0934 0 0
3:15 am 03:15 Cloudy 39 3.7 34 1.2 84 84 ESE 17 28 30.03 1017 10 16.0934 0 0
3:35 am 03:35 Cloudy 38 3.5 34 1 84 84 ESE 16 26 30.02 1017 10 16.0934 0 0
3:55 am 03:55 Cloudy 38 3.3 34 1 85 85 ESE 21 33 30.02 1017 10 16.0934 0 0
4:15 am 04:15 Cloudy 37 3 33 0.6 84 84 ESE 20 31 30.02 1016 10 16.0934 0 0
4:35 am 04:35 Cloudy 37 2.8 33 0.6 86 86 ESE 21 33 30.03 1017 10 16.0934 0 0
4:55 am 04:55 Cloudy 37 2.7 33 0.7 87 87 SE 18 30 30.02 1017 10 16.0934 0 0
5:15 am 05:15 Cloudy 37 2.6 33 0.7 87 87 ESE 16 26 30.01 1016 10 16.0934 0 0
5:35 am 05:35 Cloudy 37 2.5 33 0.8 89 89 ESE 18 30 30 1016 10 16.0934 0 0
5:55 am 05:55 Cloudy 37 2.5 34 1 90 90 ESE 20 31 30 1016 10 16.0934 0 0
6:15 am 06:15 Cloudy 37 2.7 34 1.2 90 90 SE 17 28 30 1016 10 16.0934 0 0
6:35 am 06:35 Cloudy 37 2.7 34 1.2 90 90 SE 17 28 30.01 1016 10 16.0934 0 0
6:55 am 06:55 Cloudy 37 2.6 34 1.2 91 91 SE 18 30 30.01 1016 10 16.0934 0 0
7:15 am 07:15 Cloudy 37 2.7 34 1.3 91 91 SE 17 28 30.01 1016 10 16.0934 0 0
7:35 am 07:35 Cloudy 37 3 35 1.4 89 89 SE 18 30 30.02 1016 10 16.0934 0 0
7:55 am 07:55 Cloudy 37 3 35 1.5 90 90 SE 13 20 30.03 1017 10 16.0934 0 0
8:15 am 08:15 Cloudy 38 3.2 35 1.5 89 89 SE 12 19 30.03 1017 10 16.0934 0 0
8:35 am 08:35 Cloudy 38 3.5 35 1.6 88 88 SSE 13 20 30.03 1017 10 16.0934 0 0
8:55 am 08:55 Cloudy 38 3.6 35 1.7 88 88 SSE 12 19 30.04 1017 10 16.0934 0 0
9:15 am 09:15 Cloudy 38 3.5 35 1.9 89 89 SSE 14 22 30.02 1017 10 16.0934 0 0
9:35 am 09:35 Cloudy 38 3.6 35 1.9 89 89 SSE 15 24 30.01 1016 10 16.0934 0 0
9:55 am 09:55 Cloudy 39 3.7 35 1.9 88 88 S 14 22 30.01 1016 10 16.0934 0 0
10:15 am 10:15 Cloudy 39 4.1 36 2.1 87 87 SSE 14 22 30 1016 10 16.0934 0 0
10:35 am 10:35 Cloudy 40 4.6 35 1.9 83 83 SSE 17 28 29.98 1015 10 16.0934 0 0
10:55 am 10:55 Cloudy 41 5 36 2.1 82 82 SSE 16 26 29.97 1015 10 16.0934 0 0
11:15 am 11:15 Cloudy 43 6 37 2.5 78 78 SSE 16 26 29.95 1014 10 16.0934 0 0
11:35 am 11:35 Cloudy 44 6.6 36 2.4 75 75 S 17 28 29.93 1014 10 16.0934 0 0
11:55 am 11:55 Mostly Cloudy 46 8 37 3 71 71 SSE 17 28 29.9 1013 10 16.0934 0 0
12:15 pm 12:15 Mostly Cloudy 48 8.7 38 3.1 68 68 SSE 17 28 29.88 1012 10 16.0934 0 0
12:35 pm 12:35 Partly Cloudy 48 9.1 38 3.1 66 66 SSE 17 28 29.87 1012 10 16.0934 0 0
12:55 pm 12:55 Sunny 50 10 39 3.7 65 65 SSE 16 26 29.84 1011 10 16.0934 0 0
1:15 pm 13:15 Sunny 50 10.1 38 3.4 63 63 S 21 33 29.83 1010 10 16.0934 0 0
1:35 pm 13:35 Sunny 52 11.1 39 3.9 61 61 S 16 26 29.81 1010 10 16.0934 0 0
1:55 pm 13:55 Sunny 54 12.1 40 4.7 61 61 SSE 20 31 29.78 1009 10 16.0934 0 0
2:15 pm 14:15 Sunny 55 12.7 41 4.8 59 59 S 20 31 29.79 1009 10 16.0934 0 0
2:35 pm 14:35 Sunny 56 13.5 40 4.7 56 56 SSE 18 30 29.76 1008 10 16.0934 0 0
2:55 pm 14:55 Sunny 57 13.8 41 4.9 55 55 S 20 31 29.75 1007 10 16.0934 0 0
3:15 pm 15:15 Sunny 58 14.2 41 5 54 54 SSE 14 22 29.73 1007 10 16.0934 0 0
3:35 pm 15:35 Sunny 59 15 42 5.3 53 53 S 22 35 29.72 1006 10 16.0934 0 0
3:55 pm 15:55 Sunny 58 14.6 41 5 53 53 S 18 30 29.69 1006 10 16.0934 0 0
4:15 pm 16:15 Sunny 61 16.2 43 5.9 51 51 SSE 18 30 29.67 1005 10 16.0934 0 0
4:35 pm 16:35 Sunny 59 15.2 42 5.6 53 53 SSE 18 30 29.64 1004 10 16.0934 0 0
4:55 pm 16:55 Sunny 64 17.5 43 6.2 48 48 SSE 24 39 29.61 1003 10 16.0934 0 0
5:15 pm 17:15 Sunny 63 17 43 6.1 49 49 SSE 20 31 29.61 1003 10 16.0934 0 0
5:35 pm 17:35 Sunny 63 17.1 43 6.2 49 49 SSE 21 33 29.61 1003 10 16.0934 0 0
5:55 pm 17:55 Sunny 62 16.5 43 6.2 51 51 SSE 17 28 29.63 1003 10 16.0934 0 0
6:15 pm 18:15 Sunny 61 16.1 43 6.2 52 52 SSE 17 28 29.65 1004 10 16.0934 0 0
6:35 pm 18:35 Sunny 60 15.7 43 6.2 53 53 SSE 9 15 29.67 1005 10 16.0934 0 0
6:55 pm 18:55 Sunny 60 15.4 43 6.3 55 55 ESE 5 7 29.71 1006 10 16.0934 0 0
7:15 pm 19:15 Mostly Cloudy 59 14.9 44 6.5 57 57 E 6 9 29.72 1006 10 16.0934 0 0
7:35 pm 19:35 Cloudy with Light Rain 57 14 46 7.5 65 65 E 10 17 29.71 1006 10 16.0934 0 0
7:55 pm 19:55 Mostly Cloudy 55 13 46 8 72 72 N 13 20 29.74 1007 10 16.0934 0 0
8:15 pm 20:15 Mostly Cloudy 56 13.2 46 7.8 70 70 NNE 12 19 29.72 1007 10 16.0934 0 0
8:35 pm 20:35 Cloudy with Light Rain 55 12.7 47 8.5 76 76 NNE 7 11 29.77 1008 10 16.0934 0 0
8:55 pm 20:55 Cloudy with Light Rain 55 12.5 47 8.5 77 77 ENE 7 11 29.77 1008 10 16.0934 0 0
9:15 pm 21:15 Cloudy with Light Rain 54 12.2 48 8.8 80 80 E 13 20 29.76 1008 10 16.0934 0 0
9:35 pm 21:35 Mostly Cloudy with Light Rain 53 11.5 47 8.4 81 81 E 21 33 29.7 1006 7 11.26538 0.05 1.27
9:55 pm 21:55 Partly Cloudy 52 11 47 8.1 82 82 E 14 22 29.71 1006 10 16.0934 0.05 1.27
10:15 pm 22:15 Clear 51 10.7 46 8 84 84 E 14 22 29.7 1006 10 16.0934 0 0
10:35 pm 22:35 Clear 51 10.5 46 7.8 84 84 E 17 28 29.7 1006 10 16.0934 0 0
10:55 pm 22:55 Clear 50 10.1 46 7.8 86 86 E 10 17 29.72 1006 10 16.0934 0 0
11:15 pm 23:15 Clear 50 9.8 47 8.1 89 89 ESE 13 20 29.71 1006 10 16.0934 0 0
11:35 pm 23:35 Clear 49 9.5 47 8.1 91 91 ESE 9 15 29.71 1006 10 16.0934 0 0
11:55 pm 23:55 Clear 49 9.4 46 7.9 90 90 N 13 20 29.75 1007 10 16.0934 0 0

Powered by AerisWeather